Theta_e
355 358 366 366 367 366 364 364 362 361 360 361 362 362 363 364 363 362 362 362 361 360 359 357 356 357 359 359 362 362 362 360 356 353 348 345 343 342 342 342 339 334 339
354 356 365 367 367 367 366 363 362 361 361 362 362 362 364 364 363 361 362 362 361 359 358 357 357 357 358 358 360 361 360 360 358 351 347 344 343 342 340 340 340 335 338
352 355 359 366 367 367 365 363 361 361 362 363 362 363 364 363 362 362 363 361 360 358 358 357 358 358 360 359 359 361 359 358 358 353 354 335 336 341 340 340 340 338 337
353 352 356 366 366 367 366 362 361 362 362 363 362 363 363 362 361 362 362 361 359 357 356 357 358 358 360 360 359 359 357 355 355 356 348 334 334 341 340 339 338 337 337
349 351 361 366 366 366 365 363 361 362 363 363 362 363 363 362 360 361 362 361 359 355 355 356 356 359 361 362 360 358 357 357 353 347 332 332 332 336 338 338 337 336 339
346 355 363 365 365 365 365 364 363 363 363 363 363 363 363 361 360 361 361 360 358 356 354 355 356 360 362 362 360 358 357 355 355 338 333 336 333 338 337 337 336 336 336
349 355 359 364 365 364 364 365 364 363 363 363 364 363 362 361 360 360 360 360 358 355 354 354 358 362 363 361 359 357 356 354 349 335 333 333 334 338 337 336 336 335 334
353 348 355 363 363 364 364 364 364 363 363 363 363 362 362 361 360 359 360 359 358 354 355 355 359 362 361 359 357 355 354 352 347 336 333 334 339 338 336 336 335 334 333
351 346 349 353 360 363 363 363 363 363 362 362 362 361 361 360 359 359 359 359 357 354 355 356 359 361 360 358 355 353 352 351 343 338 334 334 338 336 336 336 334 333 332
352 350 346 347 350 355 357 362 363 362 362 361 361 361 360 359 359 359 358 358 357 354 354 356 360 361 359 357 354 353 351 352 340 335 333 334 338 336 335 335 333 332 331
352 354 352 348 345 344 346 357 360 360 361 361 360 360 357 351 352 353 351 357 357 355 354 356 360 360 358 356 354 352 350 345 341 336 334 339 338 336 336 333 333 331 330
344 347 353 355 352 350 347 354 352 353 354 355 353 356 351 347 351 350 350 357 357 355 354 355 359 359 357 353 350 350 347 347 343 336 335 339 338 336 336 333 333 331 330
340 346 350 356 358 354 355 350 347 349 348 350 350 353 349 344 352 350 350 348 351 354 346 349 351 354 353 352 350 349 349 347 343 337 337 340 339 337 336 333 333 331 329
328 344 347 354 353 348 361 360 352 350 349 347 347 352 349 346 352 349 348 346 344 345 343 341 344 346 349 354 351 350 352 349 342 337 338 340 340 337 335 334 333 332 329
327 331 353 359 361 366 376 369 361 362 356 352 350 351 350 349 353 352 351 348 343 344 341 342 341 344 345 350 354 351 352 350 341 337 336 341 342 338 336 335 334 332 329
335 335 336 356 366 363 367 371 369 356 362 354 356 352 356 357 359 355 353 353 348 346 343 345 347 347 345 347 353 355 350 349 345 340 337 337 342 340 337 336 335 332 330
340 349 339 353 360 361 362 363 363 360 358 350 347 332 331 356 361 358 357 349 351 351 351 349 351 349 347 343 344 352 351 350 348 343 337 336 338 342 339 336 335 332 330
338 341 344 334 356 361 361 362 359 358 365 364 341 332 333 352 357 355 353 352 354 354 350 347 347 346 344 342 341 347 350 350 348 347 340 335 335 334 338 338 337 333 331
340 345 343 346 350 356 363 361 364 364 364 366 359 345 340 345 355 355 351 351 358 354 355 350 346 346 344 345 342 341 353 342 339 346 344 339 335 334 334 339 338 336 333
338 345 347 349 353 356 358 363 357 357 356 359 355 344 329 336 350 352 355 355 357 351 352 350 348 350 348 346 341 341 342 340 333 333 343 342 337 337 334 333 332 333 335
341 345 345 351 355 354 352 348 345 345 346 349 354 343 329 343 352 352 353 353 354 352 353 349 348 344 345 350 340 341 344 342 333 340 345 341 342 340 336 333 331 330 331
344 346 345 351 354 355 353 348 347 341 344 344 349 352 353 351 356 355 353 351 353 351 352 351 349 344 344 343 338 337 330 337 344 348 348 344 342 340 336 335 333 332 329
340 343 345 347 355 355 350 352 356 358 348 343 345 346 347 350 353 354 353 353 352 352 348 350 350 346 341 340 340 335 326 325 334 343 343 344 342 341 337 336 335 331 329
332 341 342 346 356 354 358 349 349 344 341 340 343 345 348 349 349 354 353 355 353 352 350 348 350 348 347 339 339 337 336 335 330 328 341 342 341 339 338 336 336 331 328
331 335 340 349 356 354 354 357 348 347 341 346 343 351 350 352 348 347 352 354 353 352 349 350 347 349 348 343 342 337 335 336 336 331 326 334 339 341 340 339 336 334 327
328 332 338 342 350 356 353 351 356 348 344 346 340 344 345 345 348 349 347 350 354 352 351 350 348 347 346 345 345 342 338 333 332 329 329 330 330 335 339 338 336 335 327
Wind_Speed
15 15 15 14 12 14 15 15 14 14 12 12 12 13 13 12 13 13 13 12 12 12 11 11 10 10 11 11 12 13 12 14 16 19 20 20 18 17 16 18 18 13 14
16 16 14 15 12 15 15 15 15 14 13 12 11 11 12 12 12 12 12 12 11 11 11 10 10 10 10 11 10 12 8 11 15 18 22 20 18 16 15 16 15 12 14
16 15 15 13 12 14 17 15 14 13 13 12 12 11 11 12 11 11 11 11 11 10 10 10 10 10 9 10 9 9 6 8 12 13 9 13 12 14 14 14 14 13 14
17 13 13 14 12 13 15 16 16 15 13 12 12 11 11 11 10 11 10 10 10 10 9 9 9 9 9 9 9 7 4 4 5 7 2 12 12 13 11 14 13 14 14
16 14 14 13 12 13 14 15 15 15 14 14 13 12 11 11 11 9 9 9 9 9 9 8 8 8 9 11 9 5 3 0 2 6 13 10 8 10 12 15 13 13 14
18 18 16 15 14 14 14 14 14 14 14 14 13 12 12 10 10 9 9 9 8 8 8 7 6 7 10 11 8 5 2 4 4 9 12 12 8 11 12 13 13 13 13
19 17 15 15 15 15 15 15 15 15 14 13 13 13 12 11 10 8 7 8 8 7 7 6 7 6 11 10 7 5 5 5 5 12 12 9 7 10 11 11 12 13 13
18 15 14 14 14 14 14 14 15 15 16 15 13 12 12 11 10 9 8 7 8 7 7 6 8 9 10 8 6 5 4 6 6 14 12 8 9 11 11 11 12 13 13
17 15 12 12 12 13 13 14 14 14 14 14 14 13 13 13 12 10 9 8 7 6 6 6 7 9 9 7 6 5 4 6 4 8 12 7 11 11 10 11 12 12 13
18 16 13 11 12 11 10 12 12 13 13 13 13 13 12 12 12 11 10 9 8 7 6 6 7 9 8 8 6 5 6 8 4 11 9 7 11 11 10 12 10 11 12
18 19 18 18 15 12 12 10 11 12 12 12 12 13 11 8 10 13 12 14 10 9 8 7 8 10 10 8 7 7 6 3 6 9 7 13 11 11 10 10 9 10 11
14 12 14 15 16 16 13 13 10 10 9 9 10 12 9 9 10 12 11 15 13 10 9 8 9 10 11 6 5 6 4 6 3 9 7 13 12 11 11 10 10 9 10
17 17 19 17 10 10 14 13 8 7 7 8 12 12 11 9 8 6 7 7 6 9 6 7 7 6 10 7 7 7 8 4 4 7 12 15 12 11 12 9 9 9 8
1 13 21 9 7 12 12 4 12 11 11 10 10 10 8 6 5 9 8 9 8 7 8 9 7 10 11 9 10 6 5 1 7 7 10 16 12 11 11 10 8 8 7
7 10 14 16 12 7 1 3 2 2 2 8 8 12 9 7 5 5 5 8 8 9 8 8 8 9 10 10 9 7 5 1 9 8 6 17 13 12 11 10 9 7 6
6 6 7 10 10 8 3 4 2 6 10 7 8 5 7 3 3 3 4 3 7 7 9 6 6 4 3 3 8 8 7 7 5 11 8 9 14 12 12 11 9 7 6
3 2 4 4 10 7 4 4 3 4 4 9 4 10 16 8 3 2 2 0 2 3 3 3 2 4 2 4 6 9 9 6 6 8 10 9 8 13 12 12 11 9 7
6 6 4 5 13 7 6 4 4 2 2 3 10 5 1 13 3 3 1 1 2 3 3 3 3 2 4 4 4 3 7 5 10 3 7 9 9 8 12 13 13 11 9
7 6 6 2 8 11 5 4 3 4 2 2 4 4 7 18 6 5 3 4 1 3 3 2 2 4 4 4 5 6 6 9 9 5 10 10 13 11 8 15 14 13 11
9 8 8 6 5 11 7 3 3 4 3 7 7 5 8 6 10 5 2 2 2 2 4 4 5 4 3 3 5 4 5 7 6 6 8 6 12 12 13 12 9 8 13
9 9 9 7 8 7 8 6 6 4 5 4 6 19 12 17 7 7 5 4 3 3 4 5 3 5 4 2 2 4 2 5 7 6 9 9 8 10 12 11 8 6 7
7 9 9 7 9 9 6 5 4 4 3 4 6 9 11 8 7 7 5 5 6 4 5 4 3 2 2 5 3 2 4 3 3 7 6 8 9 7 11 13 11 8 9
8 8 9 8 11 10 9 5 1 3 3 2 5 5 4 7 8 6 8 4 6 4 4 6 5 5 4 2 3 4 3 3 7 5 9 6 8 5 7 10 12 11 11
11 9 9 12 12 11 8 7 6 4 3 3 4 4 6 7 6 7 7 5 5 5 5 4 4 4 4 5 3 5 7 11 3 3 5 9 8 7 6 5 6 11 11
15 13 12 10 10 12 10 7 8 6 4 4 2 6 7 5 5 3 5 6 6 4 5 5 4 6 4 4 4 4 7 7 6 6 5 4 4 4 6 5 6 8 12
9 16 13 12 9 10 12 10 6 9 8 3 4 5 5 5 5 6 6 5 3 4 4 4 5 5 4 4 4 4 5 4 5 5 6 5 4 4 7 5 6 7 10
Wind_Direction
113 122 116 120 122 127 128 126 125 127 126 123 118 115 113 108 108 106 102 100 99 98 95 91 86 84 83 83 88 96 94 101 99 95 87 75 67 59 57 51 61 60 56
129 130 123 123 130 132 130 128 128 129 128 127 125 122 119 116 115 112 110 107 104 100 98 99 96 93 93 95 89 99 118 115 114 115 102 84 70 65 61 67 61 62 57
133 126 130 123 132 137 134 131 129 131 131 130 128 127 122 120 119 116 113 111 107 103 101 98 93 93 96 103 103 117 134 114 131 149 92 96 80 69 65 63 62 68 59
127 145 130 124 138 133 136 138 137 139 134 132 131 136 131 126 126 121 119 116 112 109 104 100 98 98 99 114 112 130 167 138 140 187 238 85 80 65 72 76 63 53 57
135 133 122 127 128 130 136 138 138 141 140 139 138 141 137 135 130 126 125 120 117 113 110 104 102 112 113 124 131 168 206 42 305 70 57 67 79 68 69 55 54 56 49
141 121 130 128 133 132 134 136 137 140 140 142 141 141 141 139 134 133 132 129 123 118 116 113 113 125 131 134 147 192 249 283 333 93 91 77 68 74 71 64 62 59 51
124 125 135 134 138 139 141 141 141 142 143 145 144 145 143 144 136 138 138 136 132 129 129 122 121 127 137 143 164 206 246 301 313 101 90 87 89 78 69 68 63 59 50
116 135 137 135 138 143 146 145 145 147 148 149 149 149 146 146 146 148 149 148 141 143 141 134 134 132 139 147 173 234 275 318 355 103 100 97 100 87 81 74 67 58 55
122 124 144 152 147 145 148 148 148 150 152 152 154 153 154 152 152 153 156 157 151 149 148 142 150 149 150 155 178 237 290 306 358 115 112 108 104 96 89 82 71 64 57
140 141 147 151 162 164 158 151 151 154 155 153 155 157 158 155 156 160 160 166 161 160 162 159 163 159 161 163 188 234 260 278 123 98 90 112 115 106 101 90 82 69 63
159 154 159 163 161 174 159 161 155 160 160 159 161 163 159 180 174 164 188 162 171 172 171 165 158 161 167 178 193 224 265 268 129 109 108 125 120 115 109 99 91 73 67
171 104 153 171 161 171 159 152 173 175 180 185 184 174 193 210 176 179 168 164 171 175 174 173 171 174 185 180 188 229 243 217 155 110 118 135 132 127 120 113 94 85 75
163 167 172 148 177 159 149 162 170 171 189 192 192 178 200 201 182 161 141 165 172 180 186 181 180 202 206 209 179 190 225 210 119 118 139 144 143 140 135 129 106 101 84
4 102 133 148 143 197 120 253 170 177 186 183 189 186 194 217 187 154 161 177 180 172 206 185 189 205 226 210 183 191 207 354 119 120 147 149 153 152 148 140 122 116 94
360 13 118 128 137 177 79 297 298 149 85 198 163 185 205 198 226 154 166 175 187 175 200 190 207 203 221 199 188 184 140 91 120 126 145 158 162 165 162 151 143 135 116
357 359 347 124 126 125 87 323 58 183 201 95 86 282 226 210 254 160 161 223 184 178 198 194 198 200 211 250 188 171 162 167 139 146 149 158 170 175 173 167 167 151 137
283 353 334 120 113 104 114 314 257 307 313 117 116 138 196 263 167 196 65 257 239 290 275 180 215 170 161 238 274 162 167 190 150 147 151 155 175 185 181 181 167 164 153
182 175 196 250 132 127 130 242 289 194 318 91 135 194 140 220 213 136 167 336 316 301 209 229 180 267 185 225 256 233 148 146 118 290 158 157 169 190 191 190 182 177 168
162 158 159 185 134 143 161 219 227 208 171 196 99 160 81 339 200 143 220 234 79 324 322 238 220 194 215 214 221 236 115 123 118 132 259 171 174 185 184 193 189 184 179
169 155 159 178 151 151 159 147 225 217 216 165 178 158 137 176 246 159 236 334 81 349 326 351 341 258 207 214 276 300 141 154 165 186 204 201 187 183 184 174 184 188 186
159 161 165 183 168 156 150 183 209 199 198 220 199 130 200 203 160 152 204 193 189 212 235 280 297 313 316 273 57 308 127 208 155 204 193 206 205 182 170 164 180 182 189
166 156 162 196 173 164 169 200 195 208 176 193 138 155 165 146 132 156 208 189 169 189 198 256 286 277 253 49 43 295 273 277 228 198 186 201 205 180 159 169 181 175 173
167 168 168 198 178 178 183 183 178 339 106 99 114 140 159 152 156 178 177 218 159 199 217 199 215 236 262 68 146 147 112 275 245 194 200 200 210 175 184 172 179 170 166
188 182 182 193 184 184 197 178 172 186 169 227 195 179 158 159 184 172 178 194 178 196 232 231 211 226 199 232 191 231 242 244 310 311 221 207 212 195 185 176 166 169 158
184 185 181 188 191 184 195 215 176 175 223 227 173 117 123 133 142 178 179 186 186 200 259 259 201 216 223 231 218 226 230 262 280 253 283 241 219 216 197 162 157 160 163
235 175 172 180 195 187 187 208 212 184 218 227 197 147 150 167 180 191 190 179 181 198 225 244 252 244 236 256 257 256 240 215 237 247 250 240 211 232 222 195 150 152 145